When you browse on this site, cookies collect data to enhance your experience and personalize the content and advertising you see.
Visit our Privacy Policy to learn more. By continuing to use the site, you agree to this use of cookies and data.
  • In Hungary
  • List of Countries
  • For 7 days
  • Water Temperature
  • Satellite Maps
  • Weather Map
  • News
  • Weather Widgets
  • user-avatar
    Login

    Hourly Weather Spiglowka

    Today, 23 January, Wednesday

    Time Temperature Precipitation Wind Pressure Humidity
    00:00 -9°C° 0 mm 2 mps 742 mmHg 93%
    01:00 -9°C° 0 mm 2 mps 742 mmHg 93%
    02:00 -9°C° 0 mm 2 mps 741 mmHg 94%
    03:00 -9°C° 0 mm 2 mps 741 mmHg 94%
    04:00 -9°C° 0 mm 2 mps 741 mmHg 95%
    05:00 -12°C° 0 mm 3 mps 741 mmHg 95%
    06:00 -12°C° 0 mm 3 mps 741 mmHg 95%
    07:00 -12°C° 0 mm 3 mps 740 mmHg 95%
    08:00 -10°C° 0 mm 3 mps 741 mmHg 92%
    09:00 -10°C° 0 mm 3 mps 741 mmHg 90%
    10:00 -10°C° 0 mm 4 mps 741 mmHg 87%
    11:00 -9°C° 0 mm 3 mps 741 mmHg 86%
    12:00 -9°C° 0 mm 3 mps 740 mmHg 84%
    13:00 -8°C° 0 mm 3 mps 740 mmHg 83%
    14:00 -9°C° 0 mm 3 mps 740 mmHg 85%
    15:00 -10°C° 0 mm 3 mps 740 mmHg 88%
    16:00 -10°C° 0 mm 2 mps 740 mmHg 90%
    17:00 -10°C° 0 mm 2 mps 740 mmHg 90%
    18:00 -12°C° 0 mm 3 mps 741 mmHg 91%
    19:00 -13°C° 0 mm 3 mps 741 mmHg 91%
    20:00 -13°C° 0 mm 3 mps 741 mmHg 92%
    21:00 -13°C° 0 mm 2 mps 741 mmHg 93%
    22:00 -13°C° 0 mm 2 mps 741 mmHg 94%
    23:00 -13°C° 0 mm 2 mps 741 mmHg 94%

    Tomorrow, 24 January, Thursday

    Time Temperature Precipitation Wind Pressure Humidity
    00:00 -13°C° 0 mm 2 mps 741 mmHg 94%
    01:00 -13°C° 0 mm 2 mps 742 mmHg 94%
    02:00 -13°C° 0 mm 2 mps 742 mmHg 94%
    03:00 -14°C° 0 mm 2 mps 742 mmHg 94%
    04:00 -14°C° 0 mm 2 mps 742 mmHg 94%
    05:00 -14°C° 0 mm 2 mps 742 mmHg 94%
    06:00 -14°C° 0 mm 2 mps 742 mmHg 94%
    07:00 -14°C° 0 mm 2 mps 742 mmHg 94%
    08:00 -13°C° 0 mm 2 mps 743 mmHg 93%
    09:00 -14°C° 0 mm 3 mps 743 mmHg 91%
    10:00 -13°C° 0 mm 3 mps 744 mmHg 90%
    11:00 -12°C° 0 mm 3 mps 744 mmHg 89%
    12:00 -12°C° 0 mm 3 mps 744 mmHg 88%
    13:00 -10°C° 0 mm 3 mps 744 mmHg 87%
    14:00 -10°C° 0 mm 3 mps 744 mmHg 89%
    15:00 -12°C° 0 mm 3 mps 744 mmHg 91%
    16:00 -13°C° 0 mm 3 mps 744 mmHg 92%
    17:00 -13°C° 0 mm 3 mps 744 mmHg 92%
    18:00 -13°C° 0 mm 3 mps 744 mmHg 92%
    19:00 -14°C° 0 mm 3 mps 744 mmHg 92%
    20:00 -14°C° 0 mm 3 mps 744 mmHg 93%
    21:00 -14°C° 0 mm 3 mps 744 mmHg 93%
    22:00 -14°C° 0 mm 3 mps 745 mmHg 93%
    23:00 -14°C° 0 mm 3 mps 745 mmHg 93%

    Day after tomorrow, 25 January, Friday

    Time Temperature Precipitation Wind Pressure Humidity
    00:00 -15°C° 0 mm 3 mps 744 mmHg 93%
    01:00 -15°C° 0 mm 3 mps 744 mmHg 93%
    02:00 -15°C° 0 mm 3 mps 744 mmHg 93%
    03:00 -15°C° 0 mm 3 mps 744 mmHg 93%
    04:00 -15°C° 0 mm 3 mps 744 mmHg 92%
    05:00 -15°C° 0 mm 3 mps 744 mmHg 92%
    06:00 -15°C° 0 mm 3 mps 744 mmHg 92%
    07:00 -15°C° 0 mm 3 mps 744 mmHg 91%
    08:00 -15°C° 0 mm 3 mps 744 mmHg 90%
    09:00 -15°C° 0 mm 4 mps 744 mmHg 89%
    10:00 -15°C° 0 mm 4 mps 744 mmHg 88%
    11:00 -14°C° 0.1 mm 4 mps 744 mmHg 88%
    12:00 -14°C° 0.1 mm 4 mps 743 mmHg 89%
    13:00 -12°C° 0.1 mm 3 mps 743 mmHg 90%
    14:00 -12°C° 0.2 mm 3 mps 743 mmHg 90%
    15:00 -12°C° 0.2 mm 3 mps 743 mmHg 91%
    16:00 -12°C° 0.2 mm 3 mps 743 mmHg 92%
    17:00 -12°C° 0.3 mm 3 mps 743 mmHg 93%
    18:00 -9°C° 0.3 mm 2 mps 743 mmHg 93%
    19:00 -9°C° 0.3 mm 2 mps 742 mmHg 94%
    20:00 -9°C° 0.2 mm 2 mps 742 mmHg 94%
    21:00 -8°C° 0.2 mm 1 mps 742 mmHg 95%
    22:00 -8°C° 0.2 mm 1 mps 742 mmHg 95%
    23:00 -9°C° 0.1 mm 0 mps 742 mmHg 96%

    26 January, Saturday

    Time Temperature Precipitation Wind Pressure Humidity
    00:00 -9°C° 0.1 mm 0 mps 741 mmHg 96%
    01:00 -9°C° 0.1 mm 0 mps 741 mmHg 96%
    02:00 -9°C° 0.1 mm 0 mps 741 mmHg 96%
    03:00 -9°C° 0.1 mm 1 mps 740 mmHg 96%
    04:00 -9°C° 0.1 mm 1 mps 740 mmHg 96%
    05:00 -9°C° 0 mm 1 mps 740 mmHg 96%
    06:00 -8°C° 0 mm 1 mps 740 mmHg 95%
    07:00 -9°C° 0 mm 2 mps 740 mmHg 95%
    08:00 -9°C° 0 mm 2 mps 739 mmHg 94%
    09:00 -9°C° 0 mm 2 mps 739 mmHg 93%
    10:00 -8°C° 0 mm 2 mps 739 mmHg 92%
    11:00 -8°C° 0 mm 2 mps 738 mmHg 91%
    12:00 -7°C° 0 mm 2 mps 738 mmHg 90%
    13:00 -7°C° 0 mm 3 mps 738 mmHg 89%
    14:00 -7°C° 0 mm 3 mps 737 mmHg 89%
    15:00 -7°C° 0 mm 3 mps 737 mmHg 90%
    16:00 -7°C° 0 mm 3 mps 736 mmHg 90%
    17:00 -8°C° 0 mm 3 mps 735 mmHg 90%
    18:00 -9°C° 0 mm 4 mps 735 mmHg 89%
    19:00 -10°C° 0 mm 5 mps 734 mmHg 88%
    20:00 -10°C° 0 mm 5 mps 734 mmHg 87%
    21:00 -8°C° 0 mm 5 mps 733 mmHg 86%
    22:00 -9°C° 0 mm 6 mps 732 mmHg 85%
    23:00 -9°C° 0.1 mm 6 mps 732 mmHg 86%

    27 January, Sunday

    Time Temperature Precipitation Wind Pressure Humidity
    00:00 -9°C° 0.1 mm 6 mps 731 mmHg 86%
    01:00 -8°C° 0.1 mm 7 mps 730 mmHg 86%
    02:00 -8°C° 0.1 mm 7 mps 730 mmHg 87%
    03:00 -8°C° 0.1 mm 7 mps 729 mmHg 87%
    04:00 -8°C° 0.1 mm 7 mps 728 mmHg 88%
    05:00 -8°C° 0.1 mm 7 mps 728 mmHg 88%
    06:00 -6°C° 0.1 mm 6 mps 728 mmHg 89%
    07:00 -6°C° 0.1 mm 6 mps 728 mmHg 89%
    08:00 -6°C° 0.1 mm 6 mps 728 mmHg 90%
    09:00 -6°C° 0.1 mm 6 mps 728 mmHg 90%
    10:00 -5°C° 0.1 mm 6 mps 728 mmHg 90%
    11:00 -5°C° 0.1 mm 6 mps 728 mmHg 90%
    12:00 -4°C° 0.1 mm 6 mps 729 mmHg 91%
    13:00 -4°C° 0.1 mm 6 mps 729 mmHg 91%
    14:00 -2°C° 0 mm 5 mps 729 mmHg 91%
    15:00 -2°C° 0 mm 5 mps 730 mmHg 91%
    16:00 -2°C° 0 mm 5 mps 730 mmHg 91%
    17:00 -2°C° 0 mm 4 mps 731 mmHg 91%
    18:00 -2°C° 0 mm 4 mps 731 mmHg 92%
    19:00 -1°C° 0 mm 3 mps 732 mmHg 93%
    20:00 -1°C° 0 mm 3 mps 732 mmHg 93%
    21:00 -2°C° 0 mm 3 mps 733 mmHg 93%
    22:00 -2°C° 0 mm 2 mps 733 mmHg 93%
    23:00 -3°C° 0 mm 2 mps 733 mmHg 93%

    28 January, Monday

    Time Temperature Precipitation Wind Pressure Humidity
    00:00 -3°C° 0 mm 2 mps 734 mmHg 93%
    01:00 -3°C° 0 mm 2 mps 734 mmHg 93%
    02:00 -3°C° 0 mm 2 mps 734 mmHg 93%
    03:00 -3°C° 0 mm 2 mps 734 mmHg 93%
    04:00 -3°C° 0 mm 2 mps 734 mmHg 92%
    05:00 -4°C° 0 mm 2 mps 734 mmHg 92%
    06:00 -5°C° 0 mm 3 mps 735 mmHg 92%
    07:00 -5°C° 0 mm 3 mps 735 mmHg 92%
    08:00 -4°C° 0 mm 3 mps 735 mmHg 91%
    09:00 -4°C° 0 mm 3 mps 736 mmHg 91%
    10:00 -2°C° 0 mm 3 mps 736 mmHg 91%
    11:00 -2°C° 0 mm 2 mps 737 mmHg 93%
    12:00 -1°C° 0 mm 2 mps 737 mmHg 95%
    13:00 -1°C° 0 mm 2 mps 737 mmHg 97%
    14:00 +1°C° 0 mm 1 mps 737 mmHg 95%
    15:00 0°C° 0 mm 1 mps 738 mmHg 94%
    16:00 0°C° 0 mm 1 mps 738 mmHg 93%
    17:00 -1°C° 0 mm 1 mps 738 mmHg 93%
    18:00 -1°C° 0 mm 1 mps 739 mmHg 93%
    19:00 -1°C° 0 mm 1 mps 739 mmHg 93%
    20:00 -1°C° 0 mm 1 mps 739 mmHg 93%
    21:00 -3°C° 0 mm 0 mps 739 mmHg 93%
    22:00 -3°C° 0 mm 0 mps 740 mmHg 93%
    23:00 -3°C° 0 mm 0 mps 740 mmHg 93%
    Show more